COSMOS 1275 DEB, 39954

Orbit data source: Space-Track

COSMOS 1275 DEB, 39954 is space debris in LEO originally from a launch on Thu, 04 Jun 1981 UTC launched from the Plesetsk Missile And Space Complex (PKMTR). Debris objects in space refer to the collection of defunct objects orbiting the Earth. Examples of debris include non-operational satellites, rocket bodies, and fragments generated from explosions, collisions, or faulty payload assembly.

Loading next visibility...
Identifier
39954, 1981-053NQ
Orbit
LEO
Country
Flag of CISCIS
Related business
Manufacturer
Unknown
Mission
Spacecraft
Bus & Motor
Unknown
Mass
Unknown
Launch date (UTC)
1981-06-04 (44 years ago)
Launch vehicle
Unknown
Launch site
Plesetsk Missile And Space Complex (PKMTR)
Object type
Payload
Rocket body
Debris
Shape & HBR
Unknown shape, 0.1 m
Radar Cross Section
Small (<0.1 m²)

Expand to show TLE details & history
Last TLE update: 2 days ago

TLE from 2 days ago
0 COSMOS 1275 DEB
1 39954U 81053NQ  25308.17638267  .00009284  00000-0  29609-2 0  9996
2 39954  82.8883 277.4583 0037511 236.8030 122.9563 14.39267877590763
Epoch: 2025-11-04T04:13Z
TLE epoch observation values (Epoch: 2025-11-04T04:13:59.462Z)
Latitude
-0.00004°
Longitude
170.29337°
Altitude
778.548 km
Speed
7.457 km/s
True Right ascension
18h 29m 49s
True Declination
0° 00' 00"
Sunlit
Object was in daylight at epoch
Visualization orbit readout
Latitude
Unknown
Longitude
Unknown
Altitude
Unknown
Speed
Unknown
Apparent Right ascension
Unknown
Apparent Declination
Unknown
Sunlit
N/A
Visualization observer readout
Local Sidereal Time
14:13:03
Azimuth
Unknown
Elevation
Unknown
Doppler factor
Unknown
Orbital elements
Apogee altitude
784.749 km
Perigee altitude
731.213 km
Semi-major axis
7,136.118 km
Eccentricity
0.00375
Inclination
82.8883°
RAAN
277.4583°
Arg. of periapsis
236.803°
True anomaly
123.31606°
Mean anomaly
122.9563°
Eccentric anomaly
123.13627°
Mean motion
3.60039 °/min
Orbital period
99.99 mins
BSTAR
0.0029609
Loading maneuver chart data...
Computing Atmospheric mass density...
Loading historical data...
Loading historical data...
Loading historical data...
Loading historical data...
Loading historical data...
Loading historical data...
Loading historical data...

Documentation

Showing up to 5 results
|